Home   Weather   Ansfelden   Past weeks

Flag for Austria Past Weather in Ansfelden, Upper Austria, Austria — Yesterday and Last 2 Weeks

Now
38 °F

Scattered clouds.


Feels Like: N/A
Forecast: 29 / 44 °F
Wind: N/A

Location: Linz / Hoersching-Flughafen

Current Time: Dec 9, 2016 at 12:55:09 pm

Latest Report: Dec 9, 2016 at 12:00 pm


Visibility: 11 mi

Pressure: 30.53 "Hg

Humidity: 93%

Dew Point: 36 °F

Location of AnsfeldenLocation

Past Weather in Ansfelden — Graph

°F

Ansfelden Temperature Yesterday

Maximum temperature yesterday: 28 °F (at 4:00 pm)
Minimum temperature yesterday: 26 °F (at 8:00 am)
Average temperature yesterday: 27 °F

High & Low Weather Summary for the Past Weeks

 TemperatureHumidityPressure
High46 °F (Nov 25, 1:00 pm)100% (Dec 3, 1:00 am)30.71 "Hg (Dec 3, 1:00 am)
Low20 °F (Nov 30, 8:00 am)45% (Nov 28, 1:00 pm)29.99 "Hg (Nov 27, 1:00 pm)
Average33 °F85%30.36 "Hg
* Reported Nov 24 11:00 am — Dec 9 11:00 am, Ansfelden, Weather by CustomWeather, © 2016

Note: Actual official high and low records may vary slightly from our data, if they occured in-between our weather recording intervals... More about our weather records

Advertising

Ansfelden Weather History for the Previous 24 Hours

Scroll right to see more
 ConditionsComfort  
Time TempWeatherWind HumidityBarometerVisibility
11:00 am
Fri, Dec 9
32 °FPassing clouds.N/A99%30.55 "Hg12 mi
10:00 am28 °FIcy mix. Scattered clouds.N/A98%30.56 "Hg5 mi
9:00 am24 °FLow clouds.N/A98%30.56 "Hg0 mi
8:00 am24 °FIce fog.N/A98%30.56 "Hg0 mi
7:00 am25 °FIce fog.N/A98%30.55 "Hg0 mi
6:00 am26 °FIce fog.N/A98%30.54 "Hg0 mi
5:00 am26 °FLow clouds.N/A98%30.55 "Hg0 mi
4:00 am26 °FPassing clouds.N/A98%30.54 "Hg2 mi
3:00 am26 °FPassing clouds.N/A98%30.53 "Hg4 mi
2:00 am27 °FLow clouds.N/A98%30.56 "Hg5 mi
1:00 am27 °FLow clouds.N/A98%30.56 "Hg1 mi
12:00 am26 °FLow clouds.N/A99%30.58 "Hg1 mi
11:00 pm
Thu, Dec 8
27 °FLow clouds.N/A98%30.59 "Hg1 mi
10:00 pm26 °FIcy mix. Low clouds.N/A98%30.59 "Hg1 mi
9:00 pm26 °FIcy mix. Low clouds.N/A99%30.60 "Hg1 mi
8:00 pm26 °FLow clouds.N/A99%30.59 "Hg1 mi
7:00 pm27 °FIce fog.N/A98%30.59 "Hg1 mi
6:00 pm27 °FIce fog.N/A99%30.59 "Hg1 mi
5:00 pm28 °FIcy mix. Low clouds.N/A98%30.59 "Hg1 mi
4:00 pm28 °FLow clouds.N/A97%30.59 "Hg1 mi
3:00 pm28 °FLow clouds.N/A96%30.61 "Hg1 mi
2:00 pm27 °FLow clouds.N/A97%30.63 "Hg2 mi
1:00 pm27 °FLow clouds.N/A96%30.64 "Hg2 mi
12:00 pm27 °FLow clouds.N/A97%30.66 "Hg1 mi
Weather by CustomWeather, © 2016

See weather overviewHow to use our weather pages